Weather History for KPRG - November, 2013

Change the Weather History Date:

Monday, November 25, 2013

  Actual Average (KHUF) Record (KHUF)
Temperature  
Mean Temperature 27 °F 39 °F  
Max Temperature 33 °F 48 °F 73 °F (1996)
Min Temperature 21 °F 31 °F 13 °F (1970)
Degree Days  
Heating Degree Days 38 26  
Month to date heating degree days 515  
Since 1 July heating degree days 942  
Cooling Degree Days 0 0  
Month to date cooling degree days 0  
Year to date cooling degree days 993  
Moisture  
Dew Point 20 °F    
Average Humidity 69    
Maximum Humidity 79    
Minimum Humidity 58    
Precipitation  
Precipitation 0.00 in 0.12 in 2.51 in (1973)
Month to date precipitation 3.19  
Year to date precipitation 41.46  
Sea Level Pressure  
Sea Level Pressure 30.28 in    
Wind  
Wind Speed 7 mph (SSW)    
Max Wind Speed 16 mph    
Max Gust Speed 18 mph    
Visibility 10 miles    
Events      
T = Trace of Precipitation, MM = Missing Value Source: NWS Daily Summary

Daily Weather History Graph

Daily Weather History Graph

Search for Another Location

Airport or City:

Trip Planner

Search our weather history database for the weather conditions in past years. The results will help you decide how hot, cold, wet, or windy it might be!

Date:

Astronomy

Nov. 25, 2013 Rise Set
Actual Time 6:46 AM CST 4:28 PM CST
Civil Twilight 6:16 AM CST 4:58 PM CST
Nautical Twilight 5:43 AM CST 5:31 PM CST
Astronomical Twilight 5:11 AM CST 6:03 PM CST
Moon 11:51 PM CST (11/25) 12:04 PM CST (11/25)
Length of Visible Light 10h 41m
Length of Day
9h 42m
Waning Gibbous, 51% of the Moon is Illuminated
Nov 25
Waning Gibbous
Nov 25
Last Quarter
Dec 2
New
Dec 9
First Quarter
Dec 17
Full

Hourly Weather History & Observations

Time (CST) Temp. Windchill Dew Point Humidity Pressure Visibility Wind Dir Wind Speed Gust Speed Precip Events Conditions
12:15 AM 21.2 °F 16.4 °F 14.9 °F 77% 30.47 in 10.0 mi South 3.5 mph - N/A   Clear
12:55 AM 21.9 °F 17.2 °F 15.4 °F 76% 30.45 in 10.0 mi SSE 3.5 mph - N/A   Clear
1:15 AM 22.8 °F 15.5 °F 15.8 °F 74% 30.44 in 10.0 mi SSE 5.8 mph - N/A   Clear
1:35 AM 23.0 °F 18.4 °F 15.8 °F 74% 30.44 in 10.0 mi South 3.5 mph - N/A   Clear
1:55 AM 23.5 °F 16.4 °F 17.1 °F 76% 30.43 in 10.0 mi South 5.8 mph - N/A   Clear
2:15 AM 23.7 °F 16.6 °F 16.7 °F 75% 30.41 in 10.0 mi SSE 5.8 mph - N/A   Clear
2:35 AM 23.7 °F - 16.9 °F 75% 30.42 in 10.0 mi Calm Calm - N/A   Clear
2:55 AM 23.9 °F 18.0 °F 16.9 °F 75% 30.40 in 10.0 mi SSE 4.6 mph - N/A   Clear
3:15 AM 23.9 °F 15.8 °F 17.1 °F 75% 30.39 in 10.0 mi South 6.9 mph - N/A   Clear
3:35 AM 23.2 °F 17.2 °F 16.5 °F 76% 30.39 in 10.0 mi South 4.6 mph - N/A   Clear
3:55 AM 23.5 °F 15.4 °F 16.7 °F 75% 30.38 in 10.0 mi South 6.9 mph - N/A   Clear
4:15 AM 24.4 °F 18.6 °F 16.7 °F 72% 30.38 in 10.0 mi South 4.6 mph - N/A   Clear
4:35 AM 23.9 °F 16.8 °F 16.7 °F 74% 30.37 in 10.0 mi SSE 5.8 mph - N/A   Clear
4:55 AM 23.0 °F 14.7 °F 16.3 °F 76% 30.36 in 10.0 mi SSE 6.9 mph - N/A   Clear
5:15 AM 23.0 °F 15.8 °F 16.7 °F 77% 30.35 in 10.0 mi SSE 5.8 mph - N/A   Clear
5:35 AM 23.7 °F 15.6 °F 17.4 °F 77% 30.36 in 10.0 mi South 6.9 mph - N/A   Clear
5:55 AM 23.7 °F 15.6 °F 17.4 °F 77% 30.35 in 10.0 mi South 6.9 mph - N/A   Clear
6:15 AM 24.1 °F 16.0 °F 17.4 °F 76% 30.35 in 10.0 mi South 6.9 mph - N/A   Clear
6:35 AM 24.8 °F 16.1 °F 17.8 °F 75% 30.35 in 10.0 mi South 8.1 mph - N/A   Scattered Clouds
6:55 AM 25.3 °F 15.3 °F 17.8 °F 73% 30.35 in 10.0 mi South 10.4 mph - N/A   Overcast
7:15 AM 25.7 °F 15.7 °F 17.6 °F 71% 30.35 in 10.0 mi South 10.4 mph - N/A   Mostly Cloudy
7:35 AM 26.1 °F 16.2 °F 18.1 °F 72% 30.33 in 10.0 mi South 10.4 mph - N/A   Overcast
7:55 AM 26.6 °F 16.8 °F 18.3 °F 71% 30.33 in 10.0 mi South 10.4 mph - N/A   Overcast
8:15 AM 27.1 °F 16.9 °F 18.7 °F 70% 30.32 in 10.0 mi South 11.5 mph - N/A   Overcast
8:35 AM 27.5 °F 16.8 °F 18.7 °F 69% 30.32 in 10.0 mi South 12.7 mph - N/A   Overcast
8:55 AM 28.0 °F 19.3 °F 18.7 °F 68% 30.31 in 10.0 mi South 9.2 mph - N/A   Overcast
9:15 AM 29.1 °F 20.0 °F 18.9 °F 66% 30.30 in 10.0 mi South 10.4 mph - N/A   Overcast
9:35 AM 29.7 °F 18.6 °F 19.4 °F 66% 30.31 in 10.0 mi South 15.0 mph - N/A   Mostly Cloudy
9:55 AM 29.8 °F 20.3 °F 18.9 °F 64% 30.30 in 10.0 mi South 11.5 mph - N/A   Overcast
10:15 AM 30.2 °F 19.3 °F 19.0 °F 63% 30.30 in 10.0 mi SSW 15.0 mph 18.4 mph N/A   Overcast
10:35 AM 30.7 °F 20.9 °F 19.0 °F 62% 30.30 in 10.0 mi SSW 12.7 mph - N/A   Overcast
10:55 AM 30.9 °F 20.7 °F 19.0 °F 61% 30.29 in 10.0 mi SSW 13.8 mph - N/A   Overcast
11:15 AM 31.5 °F 21.4 °F 19.4 °F 61% 30.27 in 10.0 mi SSW 13.8 mph - N/A   Overcast
11:35 AM 32.0 °F 21.6 °F 19.2 °F 59% 30.26 in 10.0 mi SSW 15.0 mph - N/A   Overcast
11:55 AM 32.4 °F 23.0 °F 19.4 °F 59% 30.25 in 10.0 mi SSW 12.7 mph 17.3 mph N/A   Overcast
12:15 PM 32.5 °F 22.7 °F 19.6 °F 59% 30.24 in 10.0 mi SSW 13.8 mph - N/A   Overcast
12:35 PM 32.5 °F 24.2 °F 19.4 °F 58% 30.23 in 10.0 mi SW 10.4 mph - N/A   Overcast
12:55 PM 32.9 °F 22.4 °F 19.8 °F 59% 30.24 in 10.0 mi SW 16.1 mph - N/A   Overcast
1:15 PM 32.9 °F 24.1 °F 20.1 °F 59% 30.23 in 10.0 mi SW 11.5 mph - N/A   Overcast
1:35 PM 33.3 °F 25.7 °F 20.3 °F 59% 30.22 in 10.0 mi SSW 9.2 mph - N/A   Overcast
1:55 PM 33.1 °F 24.9 °F 20.1 °F 59% 30.21 in 10.0 mi SSW 10.4 mph - N/A   Overcast
2:15 PM 33.3 °F 25.1 °F 20.5 °F 59% 30.21 in 10.0 mi South 10.4 mph - N/A   Overcast
2:35 PM 33.3 °F 24.6 °F 19.8 °F 58% 30.22 in 10.0 mi SSW 11.5 mph - N/A   Overcast
2:55 PM 33.1 °F 24.4 °F 20.5 °F 60% 30.22 in 10.0 mi SSW 11.5 mph - N/A   Overcast
3:15 PM 33.1 °F 24.9 °F 20.7 °F 60% 30.23 in 10.0 mi SSW 10.4 mph - N/A   Overcast
3:35 PM 32.9 °F 24.7 °F 20.8 °F 61% 30.23 in 10.0 mi SSW 10.4 mph - N/A   Overcast
3:55 PM 32.9 °F 25.9 °F 20.8 °F 61% 30.22 in 10.0 mi SW 8.1 mph - N/A   Overcast
4:15 PM 32.9 °F 24.7 °F 20.8 °F 61% 30.22 in 10.0 mi SSW 10.4 mph - N/A   Overcast
4:35 PM 32.4 °F 23.5 °F 21.4 °F 64% 30.21 in 10.0 mi SSW 11.5 mph - N/A   Overcast
4:55 PM 32.4 °F 23.5 °F 21.2 °F 63% 30.20 in 10.0 mi SSW 11.5 mph - N/A   Overcast
5:15 PM 32.2 °F 23.8 °F 21.7 °F 65% 30.20 in 10.0 mi SSW 10.4 mph - N/A   Overcast
5:35 PM 32.2 °F 23.2 °F 21.7 °F 65% 30.21 in 10.0 mi South 11.5 mph - N/A   Overcast
5:55 PM 32.2 °F 23.8 °F 22.1 °F 66% 30.22 in 10.0 mi SSW 10.4 mph 18.4 mph N/A   Overcast
6:15 PM 32.2 °F 25.8 °F 22.3 °F 67% 30.22 in 10.0 mi SSW 6.9 mph - N/A   Overcast
6:35 PM 32.2 °F 24.4 °F 22.3 °F 67% 30.22 in 10.0 mi SSW 9.2 mph - N/A   Overcast
6:55 PM 32.2 °F 24.4 °F 22.5 °F 67% 30.21 in 10.0 mi SSW 9.2 mph - N/A   Overcast
7:15 PM 32.0 °F 25.6 °F 22.8 °F 69% 30.21 in 10.0 mi SSW 6.9 mph - N/A   Overcast
7:35 PM 32.2 °F 25.0 °F 22.6 °F 68% 30.21 in 10.0 mi SSW 8.1 mph - N/A   Overcast
7:55 PM 32.2 °F 25.8 °F 22.6 °F 68% 30.21 in 10.0 mi SW 6.9 mph - N/A   Overcast
8:15 PM 32.0 °F 26.4 °F 22.8 °F 69% 30.20 in 10.0 mi SW 5.8 mph - N/A   Overcast
8:35 PM 32.0 °F 27.5 °F 23.4 °F 70% 30.20 in 10.0 mi SW 4.6 mph - N/A   Overcast
8:55 PM 32.0 °F 28.7 °F 23.4 °F 70% 30.19 in 10.0 mi SW 3.5 mph - N/A   Overcast
9:15 PM 32.0 °F 28.7 °F 23.5 °F 71% 30.19 in 10.0 mi SW 3.5 mph - N/A   Overcast
9:35 PM 31.8 °F - 24.1 °F 73% 30.18 in 10.0 mi Calm Calm - N/A   Overcast
9:55 PM 31.5 °F 28.1 °F 23.9 °F 74% 30.18 in 10.0 mi WSW 3.5 mph - N/A   Overcast
10:15 PM 31.1 °F - 23.5 °F 74% 30.18 in 10.0 mi Calm Calm - N/A   Overcast
10:35 PM 31.5 °F - 23.7 °F 73% 30.19 in 10.0 mi Calm Calm - N/A   Overcast
10:55 PM 31.1 °F 27.7 °F 24.4 °F 76% 30.20 in 10.0 mi SW 3.5 mph - N/A   Overcast
11:15 PM 31.1 °F 27.7 °F 25.0 °F 78% 30.21 in 10.0 mi SSW 3.5 mph - N/A   Overcast
11:35 PM 31.1 °F 25.4 °F 25.2 °F 79% 30.21 in 10.0 mi SSW 5.8 mph - N/A   Overcast
11:55 PM 31.5 °F 25.8 °F 25.3 °F 78% 30.20 in 10.0 mi SSW 5.8 mph - N/A   Overcast